Tracking 19242 objects as of 15-Aug-2018
HD Live streaming from Space Station
objects crossing your sky now

GEO IK

Track GEO IK now!
10-day predictions
GEO IK is classified as:


NORAD ID: 23411
Int'l Code: 1994-078A
Perigee: 1,487.8 km
Apogee: 1,532.8 km
Inclination: 73.6 °
Period: 116.1 minutes
Semi major axis: 7881 km
RCS: 11.135 m2 (large)
Launch date: November 29, 1994
Source: Commonwealth of Independent States (former USSR) (CIS)
Launch site: PLESETSK MISSILE AND SPACE COMPLEX (PKMTR)
aabbcc
Your satellite tracking list
Your tracking list is empty




NASA's NSSDC Master Catalog

Two Line Element Set (TLE):
1 23411U 94078A   18227.89176056 -.00000023  00000-0 -40919-4 0  9995
2 23411  73.6137  39.3414 0028541 129.6937 335.6882 12.40816926 74253
Source of the keplerian elements: AFSPC